www.pogodaiklimat.ru

Погода и климат >> Архив погоды >> Австралия >> Halls Creek Airport


ПОГОДА в Halls Creek Airport

  • Прогноз погоды в Halls Creek Airport
  • Монитор погоды в Halls Creek Airport
  • Климат города

АРХИВ ПОГОДЫ в Halls Creek Airport

Время (UTC), дата Ветер
(напр.,м/с)
 
Видим.   Явления Облачность Т
(С)
Тd
(С)
f
(%)
Тe
(С)
Тes
(С)
Комфортность P
(гПа)
Po
(гПа)
Тmin
(С)
Tmax
(С)
R
(мм)
R24
(мм)
S
(см)
22 11.11 штиль 0 н/о н/о +26.0 +1.3 20 +24 +24 комфорт 1008.3 963.3
00 12.11 З 4 н/о н/о +34.3 +6.5 18 +37 +37 очень
душно
1008.5 963.5
01 12.11 З 4 н/о н/о +35.2 +15.0 30 +37 +37 очень
душно
1008.0 963.1 +21.3
03 12.11 СЗ 4 н/о н/о +38.3 +10.6 19 +37 +37 очень
жарко
1006.3 961.4
04 12.11 З 4 н/о 1/0
[]
+39.0 +11.2 19 +38 +53 опасность
солнечного
удара
1005.2 960.4
06 12.11 З 3 н/о н/о +39.1 +8.7 16 +37 +37 очень
жарко
1003.2 958.5
07 12.11 Ю 2 н/о 1/0
[]
+39.1 +8.7 16 +37 +47 очень
жарко
1002.7 958.0
09 12.11 З 2 н/о н/о +38.2 +10.5 19 +37 +37 очень
жарко
1003.0 958.3
10 12.11 ЮЗ 4 н/о 9/0
[]
+36.5 +11.3 22 +36 +36 очень
жарко
1003.8 959.0
12 12.11 ЮЗ 3 н/о н/о +33.5 +11.4 26 +33 +33 жарко 1005.0 960.2
13 12.11 З 3 н/о 10/0
[]
+33.1 +11.6 27 +33 +33 жарко 1005.6 960.8 +41.3
15 12.11 штиль 0 н/о н/о +31.5 +11.8 30 +32 +32 жарко 1005.5 960.7
16 12.11 Ю 2 н/о 1/0
[]
+29.8 +11.8 33 +30 +30 жарко 1005.2 960.4
18 12.11 З 1 н/о н/о +29.1 +12.1 35 +30 +30 жарко 1004.6 959.8
19 12.11 СВ 1 н/о 10/0
[]
+29.4 +12.3 35 +30 +30 жарко 1005.4 960.6
21 12.11 Ю 3 н/о н/о +27.9 +16.2 49 +31 +31 душно 1006.9 962.0
22 12.11 ЮВ 2 н/о {туман} 1/0
[]
+28.7 +16.3 47 +32 +33 душно 1007.5 962.6
00 13.11 В 5 н/о н/о +32.2 +14.8 35 +34 +34 душно 1008.3 963.3
01 13.11 В 4 н/о в посл. час дождь {туман} н/о +34.7 +15.1 31 +36 +36 душно 1007.8 962.9 +25.4
03 13.11 ЮВ 4 н/о н/о +36.7 +11.5 22 +36 +36 очень
жарко
1006.6 961.7
04 13.11 Ю 3 н/о н/о +38.0 +11.9 21 +37 +37 очень
жарко
1005.4 960.6
06 13.11 ЮВ 4 н/о н/о +38.5 +11.5 20 +38 +38 очень
жарко
1003.9 959.1
07 13.11 ЮВ 3 н/о 10/0
[]
+38.0 +11.1 20 +37 +41 очень
жарко
1003.3 958.6
09 13.11 Ю 5 н/о н/о +37.9 +11.1 20 +37 +37 очень
жарко
1003.1 958.4
10 13.11 Ю 3 н/о н/о +36.4 +11.9 23 +36 +36 очень
жарко
1003.8 959.0
12 13.11 штиль 0 н/о н/о +33.0 +12.1 28 +33 +33 жарко 1005.5 960.7
13 13.11 Ю 3 н/о 10/0
[]
+34.1 +13.0 28 +35 +35 очень
жарко
1006.0 961.1 +39.9
15 13.11 В 5 н/о н/о +32.9 +13.5 31 +34 +34 очень
жарко
1005.7 960.9
16 13.11 С 3 н/о 10/0
[]
+31.0 +14.2 36 +33 +33 душно 1005.3 960.5
18 13.11 З 2 н/о н/о +28.9 +16.5 47 +32 +32 душно 1006.4 961.5
19 13.11 штиль 0 н/о 10/0
[]
+28.6 +16.8 49 +32 +32 душно 1006.1 961.2
21 13.11 ЮЗ 2 н/о н/о +28.1 +16.4 49 +32 +32 душно 1007.7 962.8
22 13.11 Ю 1 н/о 3/0
[]
+30.5 +15.8 41 +33 +34 душно 1008.2 963.2
00 14.11 ЮВ 7 н/о н/о +35.9 +10.2 21 +35 +35 очень
жарко
1008.9 963.9
01 14.11 В 6 н/о 3/0
[]
+36.7 +10.1 20 +35 +40 очень
жарко
1008.8 963.8
03 14.11 ЮВ 6 н/о н/о +38.6 +9.2 17 +37 +37 очень
жарко
1007.7 962.8
04 14.11 ЮВ 5 н/о н/о +40.2 +9.6 16 +39 +39 очень
жарко
1006.9 962.0
06 14.11 В 5 н/о н/о +39.5 +8.1 15 +37 +37 очень
жарко
1005.4 960.6
07 14.11 ЮВ 5 н/о 3/0
[]
+39.6 +8.1 15 +37 +42 очень
жарко
1004.8 960.0
09 14.11 ЮВ 3 н/о н/о +38.8 +8.5 16 +37 +37 очень
жарко
1004.5 959.7
10 14.11 ЮВ 3 н/о 8/0
[]
+37.8 +8.6 17 +36 +36 очень
жарко
1005.3 960.5
12 14.11 Ю 4 н/о н/о +36.4 +8.3 18 +35 +35 очень
жарко
1007.1 962.2
13 14.11 Ю 4 н/о 10/0
[]
+35.6 +8.4 19 +34 +34 очень
жарко
1007.1 962.2
15 14.11 Ю 6 н/о н/о +34.3 +5.8 17 +32 +32 жарко 1007.0 962.1
16 14.11 ЮВ 5 н/о 8/0
[]
+34.0 +3.7 15 +31 +31 жарко 1007.5 962.6
18 14.11 В 2 н/о н/о +30.9 +3.8 18 +29 +29 жарко 1007.7 962.8
19 14.11 ЮВ 4 н/о н/о +30.3 +4.1 19 +28 +28 жарко 1007.8 962.9
21 14.11 штиль 0 н/о н/о +25.3 +5.0 27 +25 +25 комфорт 1009.0 964.0
22 14.11 штиль 0 н/о н/о +30.2 +5.5 21 +29 +29 жарко 1009.6 964.6
00 15.11 В 4 н/о н/о +35.0 +7.9 19 +33 +33 жарко 1011.0 965.9
01 15.11 В 3 н/о н/о +36.4 +7.4 17 +34 +34 очень
жарко
1011.1 966.0
03 15.11 В 4 н/о н/о +38.7 +10.1 18 +37 +37 очень
жарко
1009.4 964.4
04 15.11 СВ 2 н/о н/о +39.2 +5.7 13 +36 +36 очень
жарко
1008.2 963.2
06 15.11 Ю 6 н/о н/о +41.7 +0.8 8 +38 +38 очень
жарко
1006.1 961.2
07 15.11 ЮЗ 5 н/о н/о +41.2 +0.4 8 +37 +37 очень
жарко
1005.5 960.7
09 15.11 ЮЗ 5 н/о н/о +39.7 +0.9 9 +36 +36 очень
жарко
1005.4 960.6
10 15.11 ЮЗ 3 н/о н/о +36.7 +0.1 10 +33 +33 жарко 1006.2 961.3
12 15.11 штиль 0 н/о н/о +29.7 +2.1 17 +27 +27 жарко 1007.4 962.5
13 15.11 ЮЗ 2 н/о н/о +29.1 +2.4 18 +27 +27 жарко 1007.6 962.7
15 15.11 СВ 3 н/о н/о +30.3 +8.1 25 +29 +29 жарко 1008.2 963.2
16 15.11 СВ 2 н/о н/о +30.0 +14.1 38 +32 +32 жарко 1007.4 962.5
18 15.11 С 4 н/о н/о +30.1 +16.5 44 +33 +33 душно 1006.8 961.9
19 15.11 С 3 н/о н/о +28.7 +16.6 48 +32 +32 душно 1006.7 961.8
21 15.11 С 2 н/о н/о +27.3 +16.6 52 +31 +31 душно 1008.0 963.1
22 15.11 С 3 н/о н/о +29.8 +18.9 52 +35 +35 очень
душно
1008.8 963.8
00 16.11 С 4 н/о н/о +34.2 +17.0 36 +37 +37 очень
душно
1009.3 964.3
01 16.11 СЗ 4 н/о н/о +35.7 +15.9 31 +38 +38 очень
душно
1009.1 964.1 +27.4
03 16.11 С 5 н/о н/о +37.6 +14.2 25 +38 +38 очень
жарко
1007.3 962.4
04 16.11 СЗ 4 н/о 6/0
[]
+38.1 +12.0 21 +38 +48 очень
жарко
1005.7 960.9
06 16.11 СЗ 6 н/о н/о +39.0 +11.2 19 +38 +38 очень
жарко
1004.0 959.2
07 16.11 С 6 н/о дождь {туман} 9/9 1000 м
[]
+33.0 +18.4 42 +38 +38 очень
душно
1003.9 959.1
09 16.11 С 6 н/о н/о +35.6 +14.8 29 +37 +37 душно 1004.0 959.2
10 16.11 С 5 н/о {туман} 5/0
[]
+34.6 +15.0 31 +36 +36 душно 1004.8 960.0
12 16.11 СВ 6 н/о н/о +31.3 +14.4 36 +33 +33 жарко 1007.7 962.8
13 16.11 СВ 7 н/о {туман} н/о +30.7 +15.2 39 +33 +33 душно 1008.5 963.5 +41.2
15 16.11 СВ 4 н/о н/о +29.0 +17.2 49 +33 +33 очень
душно
1008.8 963.8
16 16.11 СВ 3 н/о н/о +28.7 +17.6 51 +33 +33 очень
душно
1008.3 963.3
18 16.11 С 3 н/о н/о +26.9 +17.1 55 +31 +31 душно 1008.2 963.2
19 16.11 СВ 2 н/о н/о +26.1 +16.6 56 +30 +30 душно 1008.4 963.4
21 16.11 С 2 н/о н/о +25.8 +16.9 58 +30 +30 душно 1009.3 964.3
22 16.11 С 3 н/о н/о +27.1 +17.0 54 +31 +31 душно 1010.4 965.3
00 17.11 С 5 н/о н/о +31.3 +16.1 40 +34 +34 душно 1010.6 965.5
01 17.11 СВ 5 н/о н/о +32.4 +16.7 39 +36 +36 очень
душно
1010.1 965.1 +25.5
03 17.11 С 5 н/о н/о +35.3 +16.1 32 +38 +38 очень
душно
1008.3 963.3
04 17.11 СЗ 3 н/о 9/0 2000 м
[]
+35.3 +15.6 31 +37 +47 очень
душно
1007.1 962.2
06 17.11 С 4 н/о н/о +36.3 +14.3 27 +37 +37 очень
жарко
1004.9 960.1
07 17.11 СЗ 6 н/о ливневой дождь 10/10 1000 м
[]
+33.0 +16.4 37 +36 +36 очень
душно
1004.4 959.6
09 17.11 С 4 н/о н/о +32.4 +15.0 35 +34 +34 очень
жарко
1004.2 959.4
10 17.11 СЗ 3 н/о 10/0
[]
+33.0 +15.0 34 +35 +35 душно 1005.2 960.4
12 17.11 Ю 11 н/о н/о +23.4 +20.3 83 +31 +31 очень
душно
1009.3 964.3
13 17.11 Ю 4 н/о ливневой дождь {туман} 10/10 1500 м
[]
+22.3 +19.5 84 +28 +28 душно 1010.8 965.7 +38.0
15 17.11 СВ 6 н/о н/о +20.9 +19.2 90 +25 +25 комфорт 1009.4 964.4
16 17.11 С 4 8000 м слабый ливневой дождь со снегом {туман} 10/10 600 м
[]
+21.0 +19.7 92 +26 +26 душно 1009.0 964.0
18 17.11 З 3 н/о н/о +21.9 +19.1 84 +27 +27 душно 1008.5 963.5
19 17.11 С 4 н/о слабый дождь {туман} 10/10 1000 м
[]
+22.0 +19.4 85 +27 +27 душно 1008.3 963.3
21 17.11 СВ 5 н/о н/о +21.8 +18.8 83 +27 +27 душно 1009.0 964.0
22 17.11 СВ 3 н/о 1/0
[]
+22.2 +19.0 82 +28 +29 душно 1009.8 964.8
00 18.11 СВ 3 н/о н/о +24.9 +19.7 73 +30 +30 душно 1010.7 965.6
01 18.11 СВ 5 н/о в посл. час дождь {туман} н/о +27.5 +19.0 60 +33 +33 очень
душно
1010.5 965.4 +20.9
03 18.11 С 3 н/о н/о +30.3 +18.7 50 +35 +35 очень
душно
1009.2 964.2
04 18.11 С 4 н/о н/о +31.7 +16.8 41 +35 +35 очень
душно
1008.3 963.3
06 18.11 СВ 3 н/о н/о +32.1 +16.4 39 +35 +35 очень
душно
1006.2 961.3
07 18.11 В 2 н/о н/о +33.1 +16.5 37 +36 +36 очень
душно
1005.3 960.5
09 18.11 СВ 4 н/о н/о +32.7 +16.9 39 +36 +36 очень
душно
1005.6 960.8
10 18.11 СВ 4 н/о н/о +31.4 +18.0 45 +36 +36 очень
душно
1006.2 961.3
12 18.11 СВ 5 н/о н/о +29.5 +18.0 50 +34 +34 очень
душно
1007.9 963.0
13 18.11 СВ 3 н/о н/о +28.8 +18.3 53 +34 +34 очень
душно
1008.3 963.3 +33.6
15 18.11 СВ 3 н/о н/о +27.3 +19.1 61 +33 +33 очень
душно
1008.4 963.4
16 18.11 С 3 н/о н/о +26.7 +19.8 66 +33 +33 очень
душно
1007.9 963.0
18 18.11 СЗ 2 н/о н/о +25.1 +20.4 75 +31 +31 очень
душно
1007.2 962.3
19 18.11 С 1 н/о н/о +24.0 +19.7 77 +29 +29 душно 1007.0 962.1
21 18.11 СЗ 2 н/о н/о +23.2 +19.8 81 +30 +30 очень
душно
1007.9 963.0
22 18.11 С 2 н/о н/о +25.8 +19.0 66 +31 +31 очень
душно
1008.4 963.4

 

Местоположение метеостанции Halls Creek Airport (Западная Австралия, Австралия): широта -18.23 долгота 127.66 высота над уровнем моря 424 м.

В архиве по умолчанию представлена погода в Halls Creek Airport за последнюю неделю. Архивные данные за месяц целиком и за предыдущие месяцы, начиная с января 2011 года, Вы можете получить, выбрав интересующий диапазон дат из раскрывающегося списка и нажав кнопку "Ввод!".


*Определитесь, кто Вы:
робот инопланетянин человек

Внимание! Время в таблицах - всемирное. Для получения местного времени необходимо прибавить поправку, которая в Halls Creek Airport равна 8 ч.

Смотрите также архив погоды в соседних городах и на ближайших метеорологических станциях:

Погода в Argyle Aero (Западная Австралия, Австралия) (197 км)
Погода в Fitzroy Crossing Aero (Западная Австралия, Австралия) (222 км)
Погода в Kununurra (Западная Австралия, Австралия) (294 км)
Погода в Wyndham Aero (Западная Австралия, Австралия) (308 км)
Погода в Lajamanu (Северная территория, Австралия) (314 км)
Погода в Rabbit Flat (Северная территория, Австралия) (329 км)
Погода в Victoria River Downs (Северная территория, Австралия) (411 км)
Погода в Curtin Aero (Западная Австралия, Австралия) (413 км)
Погода в Derby Aero (Северная территория, Австралия) (435 км)
Погода в Kalumburu (Западная Австралия, Австралия) (450 км)

Пояснения к столбцам:

Ветер - указаны скорость ветра в м/с - средняя за 10 мин, порывы в срок и между сроками (в фигурных скобках) и направление, откуда дует ветер: С - северный, СВ - северо-восточный, В - восточный, ЮВ - юго-восточный, Ю - южный, ЮЗ - юго-западный, З - западный, СЗ - северо-западный.
Видимость - горизонтальная дальность видимости в метрах или километрах. При видимости от 1 до 10 км при отсутствии осадков обычно наблюдается дымка, при ухудшении видимости до 1 км и менее - туман. В сухую погоду видимость может ухудшаться дымом, пылью или мглою.
Явления - указаны атмосферные явления, наблюдавшиеся в срок или в последний час перед сроком; фигурными скобками обозначены явления, наблюдавшиеся между сроками (за 1-3 часа до срока); квадратными скобками обозначены град или гололедные отложения с указанием их диаметра в мм.
Облачность - указаны через наклонную черту общая и нижняя облачность в баллах и высота нижней границы облаков в метрах; квадратными скобками обозначены формы облаков: Ci - перистые, Cs - перисто-слоистые, Cc - перисто-кучевые, Ac - высококучевые, As - высокослоистые, Sc - слоисто-кучевые, Ns - слоисто-дождевые, Cu - кучевые, Cb - кучево-дождевые. Подробнее классификацию облаков см. в Атласе облаков (PDF).
T - Температура воздуха - температура, измеренная на высоте 2 м над землей.
Td - Температура точки росы - температура, при понижении до которой содержащийся в воздухе водяной пар достигнет насыщения.
f - Относительная влажность воздуха - влажноcть воздуха, измеренная на высоте 2 м над землей.
Te - Эффективная температура - температура, которую ощущает одетый по сезону человек в тени. Характеристика душности погоды. При расчете учитывается влияние влажности воздуха и скорости ветра на теплоощущения человека.
Tes - Эффективная температура на солнце - температура, которую ощущает человек, с поправкой на солнечный нагрев. Характеристика знойности погоды. Зависит от высоты солнца над горизонтом, облачности и скорости ветра. Ночью, в пасмурную погоду, а также при ветре 12 м/с и более поправка равна нулю.
P - Атмосферное давление - приведенное к уровню моря атмосферное давление.
Po - Атмосферное давление - измеренное на уровне метеостанции атмосферное давление.
Tmin - Минимальная температура - минимум температуры воздуха на высоте 2 м над землей.
Tmax - Максимальная температура - максимум температуры воздуха на высоте 2 м над землей.
R - Количество осадков - Количество выпавших осадков за период времени, мм. При наведении курсора мыши на число - период времени, за который выпало указанное количество осадков.
R24 - Количество осадков - Количество выпавших осадков за 24 часа, мм.
S - Снежный покров - Высота снежного покрова, см. При наведении курсора мыши на число - состояние снежного покрова и степень покрытия местности в баллах.